Weather History for KBMG - October, 2012

Change the Weather History Date:

Friday, October 19, 2012

  Actual Average Record
Temperature  
Mean Temperature 50 °F 54 °F  
Max Temperature 54 °F 66 °F 80 °F (2005)
Min Temperature 46 °F 41 °F 32 °F (1996)
Degree Days  
Heating Degree Days 15 11  
Month to date heating degree days 234 174  
Since 1 July heating degree days 339 259  
Cooling Degree Days 0 0  
Month to date cooling degree days 0 11  
Year to date cooling degree days 1296 924  
Moisture  
Dew Point 43 °F    
Average Humidity 70    
Maximum Humidity 93    
Minimum Humidity 46    
Precipitation  
Precipitation 0.26 in 0.13 in 1.17 in (2011)
Month to date precipitation 3.59 2.20  
Year to date precipitation 27.27 38.74  
Sea Level Pressure  
Sea Level Pressure 29.62 in    
Wind  
Wind Speed 8 mph (WSW)    
Max Wind Speed 17 mph    
Max Gust Speed 23 mph    
Visibility 9 miles    
Events Rain    
T = Trace of Precipitation, MM = Missing Value Source: NWS Daily Summary

Daily Weather History Graph

Daily Weather History Graph

Search for Another Location

Airport or City:

Trip Planner

Search our weather history database for the weather conditions in past years. The results will help you decide how hot, cold, wet, or windy it might be!

Date:

Astronomy

Oct. 19, 2012 Rise Set
Actual Time 8:00 AM EDT 7:01 PM EDT
Civil Twilight 7:33 AM EDT 7:28 PM EDT
Nautical Twilight 7:02 AM EDT 7:59 PM EDT
Astronomical Twilight 6:31 AM EDT 8:30 PM EDT
Moon 12:41 PM EDT (10/19) 10:40 PM EDT (10/19)
Length of Visible Light 11h 54m
Length of Day
11h 00m
Waxing Crescent, 23% of the Moon is Illuminated
Oct 19
Waxing Crescent
Oct 21
First Quarter
Oct 29
Full
Nov 6
Last Quarter
Nov 13
New

Hourly Weather History & Observations

Time (EDT) Temp. Windchill Dew Point Humidity Pressure Visibility Wind Dir Wind Speed Gust Speed Precip Events Conditions
12:53 AM 53.1 °F - 34.0 °F 48% 29.59 in 10.0 mi SSW 6.9 mph - N/A   Overcast
1:53 AM 52.0 °F - 35.1 °F 53% 29.57 in 10.0 mi South 5.8 mph - 0.00 in   Overcast
2:53 AM 54.0 °F - 34.0 °F 47% 29.55 in 10.0 mi SSW 15.0 mph 20.7 mph N/A   Overcast
3:53 AM 52.0 °F - 37.0 °F 57% 29.55 in 10.0 mi SSW 10.4 mph 20.7 mph 0.00 in Rain Light Rain
4:53 AM 51.1 °F - 36.0 °F 56% 29.53 in 10.0 mi WSW 3.5 mph - 0.00 in Rain Light Rain
5:53 AM 48.9 °F - 39.0 °F 69% 29.55 in 10.0 mi SW 4.6 mph - 0.00 in   Overcast
6:53 AM 48.0 °F - 39.0 °F 71% 29.54 in 10.0 mi SSW 3.5 mph - N/A   Overcast
7:53 AM 48.0 °F - 39.9 °F 74% 29.55 in 10.0 mi South 4.6 mph - N/A   Overcast
8:53 AM 50.0 °F - 39.0 °F 66% 29.55 in 10.0 mi SSW 5.8 mph - N/A   Overcast
9:53 AM 48.9 °F - 41.0 °F 74% 29.57 in 10.0 mi SW 6.9 mph - 0.00 in Rain Light Rain
10:53 AM 48.0 °F - 43.0 °F 83% 29.57 in 10.0 mi SW 9.2 mph - 0.01 in Rain Light Rain
11:53 AM 48.0 °F - 44.1 °F 86% 29.57 in 10.0 mi SSW 8.1 mph - 0.02 in Rain Light Rain
12:53 PM 48.0 °F - 44.1 °F 86% 29.59 in 10.0 mi SW 12.7 mph 23.0 mph 0.01 in Rain Light Rain
1:37 PM 46.4 °F 43.5 °F 42.8 °F 87% 29.59 in 5.0 mi WSW 5.8 mph - 0.05 in Rain Light Rain
1:48 PM 46.4 °F 44.3 °F 44.6 °F 93% 29.59 in 2.5 mi West 4.6 mph - 0.08 in Rain Rain
1:53 PM 46.0 °F 43.9 °F 44.1 °F 93% 29.59 in 3.0 mi WSW 4.6 mph - 0.09 in Rain Light Rain
2:44 PM 48.2 °F - 44.6 °F 87% 29.59 in 10.0 mi WSW 11.5 mph - 0.06 in Rain Light Rain
2:53 PM 48.0 °F - 45.0 °F 89% 29.59 in 10.0 mi SW 8.1 mph - 0.06 in   Overcast
3:34 PM 48.2 °F - 44.6 °F 87% 29.60 in 4.0 mi WSW 8.1 mph 18.4 mph 0.01 in Rain Light Rain
3:53 PM 48.0 °F - 45.0 °F 89% 29.61 in 10.0 mi WSW 8.1 mph 19.6 mph 0.01 in Rain Light Rain
4:01 PM 48.2 °F - 44.6 °F 87% 29.61 in 10.0 mi WSW 10.4 mph 17.3 mph 0.00 in   Overcast
4:12 PM 48.2 °F - 44.6 °F 87% 29.62 in 10.0 mi West 9.2 mph - N/A   Overcast
4:22 PM 48.2 °F - 44.6 °F 87% 29.62 in 6.0 mi West 6.9 mph - N/A Rain Light Rain
4:31 PM 46.4 °F 42.4 °F 44.6 °F 93% 29.62 in 2.5 mi West 8.1 mph - N/A Rain Light Rain
4:39 PM 46.4 °F 43.5 °F 44.6 °F 93% 29.62 in 2.5 mi West 5.8 mph - N/A Rain Light Rain
4:48 PM 46.4 °F 42.9 °F 44.6 °F 93% 29.63 in 5.0 mi West 6.9 mph - N/A Rain Light Rain
4:53 PM 46.9 °F - 45.0 °F 93% 29.63 in 7.0 mi West 9.2 mph - N/A Rain Light Rain
5:23 PM 48.2 °F - 44.6 °F 87% 29.64 in 10.0 mi West 8.1 mph - 0.02 in Rain Light Rain
5:32 PM 48.2 °F - 44.6 °F 87% 29.64 in 10.0 mi West 6.9 mph - 0.02 in Rain Light Rain
5:53 PM 46.9 °F - 45.0 °F 93% 29.65 in 10.0 mi West 6.9 mph - 0.02 in Rain Light Rain
6:53 PM 46.9 °F - 45.0 °F 93% 29.67 in 10.0 mi WSW 4.6 mph - 0.00 in   Overcast
7:02 PM 46.4 °F 43.5 °F 44.6 °F 93% 29.67 in 10.0 mi SW 5.8 mph - N/A   Overcast
7:53 PM 46.0 °F 41.9 °F 44.1 °F 93% 29.69 in 10.0 mi WSW 8.1 mph - 0.01 in   Mostly Cloudy
8:19 PM 46.4 °F 42.9 °F 44.6 °F 93% 29.69 in 10.0 mi WSW 6.9 mph - N/A   Mostly Cloudy
8:53 PM 46.9 °F - 44.1 °F 90% 29.70 in 10.0 mi WSW 6.9 mph - 0.00 in   Overcast
9:53 PM 46.9 °F - 44.1 °F 90% 29.71 in 10.0 mi WSW 8.1 mph - 0.00 in   Overcast
10:38 PM 46.4 °F 41.9 °F 44.6 °F 93% 29.72 in 10.0 mi WSW 9.2 mph - N/A   Overcast
10:46 PM 46.4 °F 42.9 °F 44.6 °F 93% 29.72 in 10.0 mi WSW 6.9 mph - N/A   Overcast
10:53 PM 46.9 °F - 44.1 °F 90% 29.72 in 10.0 mi WSW 8.1 mph - N/A   Overcast
11:53 PM 46.0 °F 42.5 °F 44.1 °F 93% 29.73 in 10.0 mi WSW 6.9 mph - N/A   Partly Cloudy